Погода в Лермонтовском

Россия / Иркутская область     54°18′11″N   101°22′04″E
темп.,
°C
ветер,
м/с
пор.,
м/с
влажн.,
%
обл.,
%
осадки,
мм/ч
давл.,
гПа
погр.,
м
13 июня, вс
вс1323:00+10ссз2498100 2.3 1011123
02:00+9ссз3697100 5.3 1011200
05:00+8сз2597100 0.7 1011178
08:00+8зсз3597100 3.0 1011244
11:00+9зсз2697100 2.3 1011333
14:00+9зсз1392100 4.4 1011172
17:00+11ююз4687100 0.8 1010409
20:00+13ю2583100 0.8 1009172
14 июня, пн
пн1423:00+10ююз3690100 0.0 1010107
02:00+9зюз2285100 0.0 100936
05:00+9зсз31180100 0.0 1009292
08:00+12сз257395 0.0 1009429
11:00+14з2367100 0.4 1008778
14:00+12зсз6979100 1.6 10101002
17:00+12сз61076100 0.8 10101220
20:00+10ссз51067100 1.1 10131173
15 июня, вт
вт1523:00+6зсз38895 0.0 1017211
02:00+4з389545 0.1 1018175
05:00+3з3996100 0.1 1017207
08:00+8зсз488199 0.6 1017327
11:00+12сз476127 1.0 10161397
14:00+13зсз57605 2.6 10151624
17:00+13зсз476593 0.9 10151216
20:00+11з3576100 1.8 1015128
16 июня, ср
ср1623:00+7з3488100 0.4 101763
02:00+7з399783 0.4 1017223
05:00+5зсз3996100 0.0 1017173
08:00+10зсз35825 0.0 1017295
11:00+16сз245117 0.0 10161479
14:00+18с124377 0.0 10141873
17:00+18всв1143100 0.0 10141514
20:00+16в2262100 0.0 101436
17 июня, чт
чт1723:00+10ю22754 0.0 101520
02:00+9юз22835 0.0 101515
05:00+7з11865 0.0 101610
08:00+14юв11645 0.0 1015204
11:00+20юв2244100 0.0 10131275
14:00+20вюв1242100 0.0 10121651
17:00+13зсз5994100 1.7 1013356
20:00+13ююв239367 1.9 101172